COSMOS 1275 DEB, 13488

Orbit data source: Space-Track

COSMOS 1275 DEB, 13488 is space debris in LEO originally from a launch on Thu, 04 Jun 1981 UTC launched from the Plesetsk Missile And Space Complex (PKMTR). Debris objects in space refer to the collection of defunct objects orbiting the Earth. Examples of debris include non-operational satellites, rocket bodies, and fragments generated from explosions, collisions, or faulty payload assembly.

Loading next visibility...
Identifier
13488, 1981-053GJ
Orbit
LEO
Country
Flag of CISCIS
Related business
Manufacturer
Unknown
Mission
Spacecraft
Bus & Motor
Unknown
Mass
Unknown
Launch date (UTC)
1981-06-04 (45 years ago)
Launch vehicle
Unknown
Launch site
Plesetsk Missile And Space Complex (PKMTR)
Object type
Payload
Rocket body
Debris
Shape & HBR
Unknown shape, 0.1 m
Radar Cross Section
Small (<0.1 m²)

Expand to show TLE details & history
Last TLE update: 16 hours ago

TLE from 16 hours ago
0 COSMOS 1275 DEB
1 13488U 81053GJ  25349.60177917  .00000568  00000-0  79626-3 0  9994
2 13488  83.0851 214.2016 0192031 242.6506 144.1116 13.48705882127585
Epoch: 2025-12-15T14:26Z
TLE epoch observation values (Epoch: 2025-12-15T14:26:33.720Z)
Latitude
27.84446°
Longitude
-83.28242°
Altitude
1,197.34 km
Speed
7.2 km/s
True Right ascension
14h 31m 25s
True Declination
27° 42' 39"
Sunlit
Object was in daylight at epoch
Visualization orbit readout
Latitude
Unknown
Longitude
Unknown
Altitude
Unknown
Speed
Unknown
Apparent Right ascension
Unknown
Apparent Declination
Unknown
Sunlit
N/A
Visualization observer readout
Local Sidereal Time
05:08:54
Azimuth
Unknown
Elevation
Unknown
Doppler factor
Unknown
Orbital elements
Apogee altitude
1,217.31 km
Perigee altitude
931.094 km
Semi-major axis
7,452.339 km
Eccentricity
0.0192
Inclination
83.0851°
RAAN
214.2016°
Arg. of periapsis
242.6506°
True anomaly
145.37683°
Mean anomaly
144.1116°
Eccentric anomaly
144.74666°
Mean motion
3.37368 °/min
Orbital period
106.71 mins
BSTAR
0.00079626
Loading maneuver chart data...
Computing Atmospheric mass density...
Loading historical data...
Loading historical data...
Loading historical data...
Loading historical data...
Loading historical data...
Loading historical data...
Loading historical data...

Documentation

Showing up to 5 results
|